Home > Weather > Dalian > Past weeks

Flag for China Weather for the Past 2 Weeks in Dalian, Liaoning, China

Now
37 °F

Haze.


Feels Like: 35 °F
Forecast: 24 / 38 °F
Wind: 3 mph from Southwest

Location: Dalian Airport

Current Time: Feb 8, 2016 at 10:25:32 AM

Latest Report: Feb 8, 2016 at 9:30 AM


Visibility: 3 mi

Pressure: 29.89 "Hg

Humidity: 56%

Dew point: 23 °F

Location of DalianLocation

Historic Weather in Dalian — Graph

°F

Dalian Temperature Yesterday

Maximum temperature yesterday: 41 °F (at 1:00 PM)
Minimum temperature yesterday: 16 °F (at 4:30 AM)
Average temperature yesterday: 31 °F

High & Low Weather Summary for the Past Weeks

 TemperatureHumidityPressure
High41 °F (Feb 3, 11:30 AM)86% (Jan 28, 2:00 AM)30.63 "Hg (Jan 28, 2:00 AM)
Low5 °F (Jan 25, 5:30 AM)19% (Feb 4, 1:00 PM)29.89 "Hg (Feb 8, 6:00 AM)
Average23 °F55%30.38 "Hg
* Reported Jan 24 9:00 AM — Feb 8 9:00 AM, Dalian, Weather by CustomWeather, © 2016

Note: Actual official high and low records may vary slightly from our data, if they occured in-between our weather recording intervals... More about our weather records

Advertising

Dalian Weather History for the Previous 24 Hours

 ConditionsComfort  
Time TempWeatherWind HumidityBarometerVisibility
9:00 AM
Mon, Feb 8
37 °FHaze.1 mph48%29.89 "Hg3 mi
8:30 AM36 °FClear.No wind52%29.89 "Hg4 mi
8:00 AM36 °FClear.1 mph48%29.92 "Hg4 mi
7:30 AM30 °FClear.1 mph59%29.89 "Hg4 mi
7:00 AM28 °FClear.No wind64%29.89 "Hg4 mi
6:30 AM27 °FClear.1 mph64%29.89 "Hg4 mi
6:00 AM25 °FClear.1 mph69%29.89 "Hg4 mi
5:30 AM32 °FClear.6 mph60%29.92 "Hg4 mi
5:00 AM32 °FClear.6 mph55%29.92 "Hg4 mi
4:30 AM34 °FClear.8 mph51%29.92 "Hg4 mi
4:00 AM34 °FClear.10 mph51%29.92 "Hg4 mi
3:30 AM34 °FClear.10 mph51%29.92 "Hg4 mi
3:00 AM34 °FClear.8 mph44%29.95 "Hg4 mi
2:30 AM36 °FClear.10 mph44%29.95 "Hg4 mi
2:00 AM36 °FClear.10 mph44%29.95 "Hg4 mi
1:30 AM37 °FClear.10 mph41%29.95 "Hg4 mi
1:00 AM36 °FClear.10 mph41%29.98 "Hg4 mi
12:30 AM36 °FHaze.8 mph38%29.98 "Hg3 mi
12:00 AM36 °FHaze.10 mph38%29.98 "Hg3 mi
11:30 PM
Sun, Feb 7
36 °FHaze.8 mph41%30.01 "Hg3 mi
11:00 PM36 °FHaze.8 mph41%30.01 "Hg3 mi
10:30 PM34 °FHaze.3 mph44%30.01 "Hg3 mi
10:00 PM34 °FHaze.3 mph48%30.01 "Hg3 mi
9:30 PM34 °FHaze.3 mph51%30.04 "Hg3 mi
9:00 PM32 °FHaze.1 mph55%30.04 "Hg3 mi
8:30 PM32 °FHaze.3 mph60%30.04 "Hg2 mi
8:00 PM32 °FHaze.6 mph55%30.04 "Hg2 mi
7:30 PM32 °FHaze.3 mph60%30.04 "Hg2 mi
7:00 PM32 °FHaze.6 mph64%30.04 "Hg3 mi
6:30 PM34 °FHaze.6 mph51%30.04 "Hg3 mi
6:00 PM36 °FPassing clouds.6 mph48%30.04 "HgN/A
5:30 PM36 °FPassing clouds.3 mph52%30.04 "HgN/A
5:00 PM37 °FPassing clouds.3 mph48%30.04 "HgN/A
4:30 PM39 °FPassing clouds.6 mph45%30.04 "HgN/A
4:00 PM39 °FPassing clouds.6 mph45%30.04 "HgN/A
3:30 PM39 °FPassing clouds.8 mph42%30.04 "HgN/A
3:00 PM41 °FPassing clouds.8 mph39%30.04 "HgN/A
2:30 PM39 °FPassing clouds.8 mph39%30.07 "HgN/A
2:00 PM41 °FPassing clouds.10 mph31%30.07 "HgN/A
1:30 PM41 °FPassing clouds.10 mph36%30.07 "HgN/A
1:00 PM41 °FPassing clouds.10 mph36%30.09 "HgN/A
12:30 PM39 °FPassing clouds.13 mph42%30.09 "HgN/A
12:00 PM39 °FPassing clouds.13 mph42%30.09 "HgN/A
11:30 AM39 °FPassing clouds.8 mph42%30.12 "HgN/A
11:00 AM37 °FPassing clouds.10 mph41%30.15 "HgN/A
10:30 AM39 °FPassing clouds.8 mph42%30.15 "HgN/A
10:00 AM37 °FPassing clouds.8 mph41%30.15 "HgN/A
Weather by CustomWeather, © 2016

See weather overviewHow to use our weather pages